Location: Recife
(8.0585°S, 34.8848°W)
Time: 11:50:23
(UTC-03:00)

Courier 1B - Pass Details

Date: 18 April 2026
Orbit: 962 x 1209 km, 28.3° (Epoch: 7 May)

Event Time Altitude Azimuth Distance (km) Brightness Sun altitude
Rises 14:08:22 0° 244° (WSW) 4,002 11.1 43.7°
Reaches altitude 10° 14:11:15 10° 246° (WSW) 3,006 10.7 43.1°
Maximum altitude 14:18:37 74° 330° (NNW) 1,117 8.9 41.4°
Drops below altitude 10° 14:25:29 10° 54° (NE) 2,812 9.8 39.8°
Sets 14:28:06 0° 56° (NE) 3,729 10.3 39.2°
